Weather History for Scottsbluff, NE

Change the Weather History Date:

Friday, July 19, 2013

  Actual Average Record
Temperature  
Mean Temperature 77 °F 75 °F  
Max Temperature 88 °F 91 °F 105 °F (1936)
Min Temperature 65 °F 59 °F 44 °F (1897)
Degree Days  
Heating Degree Days 0 0  
Month to date heating degree days 0 1  
Since 1 June heating degree days 21 61  
Since 1 July heating degree days 0 1  
Cooling Degree Days 12 10  
Month to date cooling degree days 219 170  
Year to date cooling degree days 468 319  
Since 1 June cooling degree days 414 296  
Growing Degree Days 28 (Base 50)    
Moisture  
Dew Point 56 °F    
Average Humidity 51    
Maximum Humidity 73    
Minimum Humidity 29    
Precipitation  
Precipitation T in 0.06 in 1.92 in (1973)
Month to date precipitation 0.74 1.14  
Year to date precipitation 6.92 10.31  
Snow  
Snow 0.00 in 0.00 in - ()
Month to date snowfall 0.0 0.0  
Since 1 July snowfall 0.0 0.0  
Snow Depth -    
Sea Level Pressure  
Sea Level Pressure 29.98 in    
Wind  
Wind Speed 9 mph (SSE)    
Max Wind Speed 16 mph    
Max Gust Speed 22 mph    
Visibility 10 miles    
Events Rain , Thunderstorm    
T = Trace of Precipitation, MM = Missing Value Source: NWS Daily Summary

Daily Weather History Graph

Daily Weather History Graph

Search for Another Location

Airport:

Trip Planner

Search our weather history database for the weather conditions in past years. The results will help you decide how hot, cold, wet, or windy it might be!

Date:

Astronomy

Jul. 19, 2013 Rise Set
Actual Time 5:36 AM MDT 8:24 PM MDT
Civil Twilight 5:03 AM MDT 8:57 PM MDT
Nautical Twilight 4:21 AM MDT 9:38 PM MDT
Astronomical Twilight 3:34 AM MDT 10:26 PM MDT
Moon 5:29 PM MDT (7/19) 2:19 AM MDT (7/19)
Length of Visible Light 15h 54m
Length of Day
14h 48m
Waxing Gibbous, 87% of the Moon is Illuminated
Jul 19
Waxing Gibbous
Jul 22
Full
Jul 29
Last Quarter
Aug 6
New
Aug 14
First Quarter

Hourly Weather History & Observations

Time (MDT) Temp. Heat Index Dew Point Humidity Pressure Visibility Wind Dir Wind Speed Gust Speed Precip Events Conditions
12:53 AM 71.1 °F - 62.1 °F 73% 29.96 in 10.0 mi NW 6.9 mph - 0.00 in Rain Light Rain
1:32 AM 69.8 °F - 62.6 °F 78% 30.13 in 10.0 mi West 5.8 mph - 0.01 in Thunderstorm Partly Cloudy
1:53 AM 70.0 °F - 62.1 °F 76% 29.97 in 10.0 mi NNW 8.1 mph - 0.01 in   Scattered Clouds
2:53 AM 70.0 °F - 60.1 °F 71% 29.95 in 10.0 mi NW 6.9 mph - N/A   Clear
3:00 AM 69.8 °F - 59.0 °F 68% 30.12 in 10.0 mi WNW 6.9 mph - N/A Thunderstorm Clear
3:15 AM 69.8 °F - 59.0 °F 68% 30.11 in 10.0 mi WNW 9.2 mph - N/A   Clear
3:53 AM 70.0 °F - 59.0 °F 68% 29.94 in 10.0 mi West 6.9 mph - N/A   Mostly Cloudy
4:53 AM 69.1 °F - 59.0 °F 70% 29.95 in 10.0 mi Calm Calm - N/A   Clear
5:53 AM 69.1 °F - 57.9 °F 68% 29.96 in 10.0 mi North 11.5 mph - N/A   Clear
6:53 AM 71.1 °F - 59.0 °F 66% 29.98 in 10.0 mi NNE 6.9 mph - N/A   Clear
7:53 AM 75.9 °F - 60.1 °F 58% 30.00 in 10.0 mi ENE 8.1 mph - N/A   Clear
8:53 AM 77.0 °F - 55.9 °F 48% 30.03 in 10.0 mi ENE 11.5 mph - N/A   Overcast
9:53 AM 80.1 °F 79.9 °F 53.1 °F 39% 30.02 in 10.0 mi ENE 10.4 mph - N/A   Mostly Cloudy
10:53 AM 82.0 °F - 52.0 °F 35% 30.03 in 10.0 mi ESE 5.8 mph - N/A   Clear
11:53 AM 82.0 °F - 48.0 °F 30% 30.04 in 10.0 mi SE 9.2 mph - N/A   Overcast
12:53 PM 82.0 °F 81.3 °F 54.0 °F 38% 30.03 in 10.0 mi South 11.5 mph - 0.00 in   Overcast
1:53 PM 86.0 °F - 51.1 °F 30% 29.99 in 10.0 mi SSE 16.1 mph 20.7 mph N/A   Clear
2:53 PM 87.1 °F - 52.0 °F 30% 29.97 in 10.0 mi SSE 13.8 mph - N/A   Clear
3:53 PM 86.0 °F - 51.1 °F 30% 29.96 in 10.0 mi SE 8.1 mph - N/A   Clear
4:53 PM 87.1 °F 84.9 °F 53.1 °F 31% 29.94 in 10.0 mi SSE 12.7 mph - N/A   Clear
5:53 PM 84.0 °F - 52.0 °F 33% 29.93 in 10.0 mi SE 12.7 mph - N/A   Clear
6:53 PM 81.0 °F - 52.0 °F 36% 29.93 in 10.0 mi South 8.1 mph - N/A   Clear
7:53 PM 80.1 °F 80.0 °F 54.0 °F 40% 29.91 in 10.0 mi SSE 9.2 mph - N/A   Clear
8:53 PM 75.0 °F - 54.0 °F 48% 29.92 in 10.0 mi South 6.9 mph - N/A   Clear
9:53 PM 72.0 °F - 57.0 °F 59% 29.93 in 10.0 mi South 6.9 mph - N/A   Clear
10:53 PM 71.1 °F - 55.9 °F 59% 29.94 in 10.0 mi SSE 5.8 mph - N/A   Clear
11:53 PM 66.9 °F - 57.0 °F 70% 29.93 in 10.0 mi SSE 6.9 mph - N/A   Clear